カタログに戻る

SL-8 DEB

運用中LEO
NORAD 12793·DEBRIS·🇷🇺 Russia

打ち上げ Aug 28, 1981 から Plesetsk Cosmodrome

Loading…

次のパス (今後24時間)

TLE

最新Source: Space-Track

元期: Sep 14, 2026, 07:16 UTC

1 12793U 81084C   26257.30284557  .00002463  00000-0  34273-3 0  9996
2 12793  74.0259   9.5778 0001685 320.4753  39.6299 14.78394038381794

AllMySatでSL-8 DEBをリアルタイム追跡

Download on the App Store